Flag for Australia Weather past 2 weeks in Macquarie Island, Tasmania, Australia

Now
36 °F

Chilly.


Feels Like: 25 °F
Forecast: 40 / 43 °F
Wind: 21 mph from West

Location: Macquarie Island

Current Time: Aug 28, 2014 at 2:11:37 AM

Latest Report: Aug 28, 2014 at 1:00 AM


Visibility: N/A

Pressure: 30.21 "Hg

Humidity: 87%

Dew point: 33 °F

Location of Macquarie IslandLocation

Historic Weather in Macquarie Island — Graph

°F

Macquarie Island temperature yesterday

Maximum temperature yesterday: 44 °F (at 11:00 AM)
Minimum temperature yesterday: 37 °F (at 11:00 PM)
Average temperature yesterday: 42 °F

Past Weeks' High & Low Weather Summary

 TemperatureHumidityPressure
High44 °F (Aug 23, 11:00 AM)97% (Aug 24, 1:00 AM)30.32 "Hg (Aug 24, 1:00 AM)
Low31 °F (Aug 20, 4:00 PM)53% (Aug 20, 8:00 PM)29.09 "Hg (Aug 13, 4:00 PM)
Average40 °F85%29.75 "Hg
* Reported Aug 13 1:00 AM — Aug 28 1:00 AM, Macquarie Island, Weather by CustomWeather, © 2014

Note: Actual official high and low records may vary slightly from our data, if they occured in-between our weather recording intervals... More about our weather records

Advertising

Macquarie Island weather history for previous 24 hours

 ConditionsComfort  
Time TempWeatherWind HumidityBarometerVisibility
1:00 AM
Aug 28
36 °FChilly.21 mph87%30.21 "HgN/A
11:00 PM
Aug 27
37 °FChilly.20 mph84%30.16 "HgN/A
10:00 PM38 °FPassing clouds.23 mph85%30.12 "Hg16 mi
8:00 PM39 °FChilly.15 mph86%30.08 "HgN/A
7:00 PM39 °FFog.10 mph88%30.03 "Hg6 mi
5:00 PM41 °FQuite cool.23 mph92%29.95 "HgN/A
4:00 PM42 °FLight rain. Low clouds.23 mph94%29.90 "Hg7 mi
2:00 PM43 °FQuite cool.33 mph96%29.84 "HgN/A
1:00 PM43 °FDrizzle. Low clouds.37 mph94%29.82 "Hg1 mi
11:00 AM44 °FQuite cool.32 mph90%29.82 "HgN/A
10:00 AM44 °FLow clouds.33 mph89%29.83 "Hg7 mi
8:00 AM43 °FQuite cool.38 mph94%29.85 "HgN/A
7:00 AM44 °FQuite cool.33 mph93%29.86 "HgN/A
5:00 AM44 °FQuite cool.28 mph93%29.89 "HgN/A
4:00 AM43 °FQuite cool.31 mph92%29.91 "HgN/A
2:00 AM42 °FQuite cool.30 mph94%29.96 "HgN/A
Weather by CustomWeather, © 2014

See weather overviewHow to use our weather pages